owner,sensor,date,latitude,longitude,vertical_datum,wind_speed,wind_to_direction,wind_speed_of_gust,qcFlag 
TCOON,ioos:station:TCOON:003:1,2015-10-01T00:00:00Z,26.8015,-97.4706,0.0,5.9,77.0,7.5,'11111222,11111222,11111222' 
TCOON,ioos:station:TCOON:003:1,2015-10-01T00:06:00Z,26.8015,-97.4706,0.0,5.3,78.0,7.7,'11111222,11111222,11111222' 
TCOON,ioos:station:TCOON:003:1,2015-10-01T00:12:00Z,26.8015,-97.4706,0.0,5.3,78.0,7.7,'1111122,1111122,1111122' 
TCOON,ioos:station:TCOON:003:1,2015-10-01T00:18:00Z,26.8015,-97.4706,0.0,6.5,78.0,7.9,'11111222,11111222,11111222' 
TCOON,ioos:station:TCOON:003:1,2015-10-01T00:24:00Z,26.8015,-97.4706,0.0,5.9,83.0,7.5,'11111222,11111222,11111222' 
TCOON,ioos:station:TCOON:003:1,2015-10-01T00:30:00Z,26.8015,-97.4706,0.0,5.6,76.0,6.7,'11111222,11111222,11111222' 
TCOON,ioos:station:TCOON:003:1,2015-10-01T00:36:00Z,26.8015,-97.4706,0.0,6.0,84.0,7.2,'11111222,11111222,11111222' 
TCOON,ioos:station:TCOON:003:1,2015-10-01T00:42:00Z,26.8015,-97.4706,0.0,5.4,86.0,7.2,'11111222,11111222,11111222' 
TCOON,ioos:station:TCOON:003:1,2015-10-01T00:48:00Z,26.8015,-97.4706,0.0,5.3,91.0,7.1,'11111222,11111222,11111222' 
TCOON,ioos:station:TCOON:003:1,2015-10-01T00:54:00Z,26.8015,-97.4706,0.0,5.2,93.0,6.9,'11111222,11111222,11111222' 
TCOON,ioos:station:TCOON:003:1,2015-10-01T01:00:00Z,26.8015,-97.4706,0.0,5.5,89.0,7.1,'11111222,11111222,11111222' 
TCOON,ioos:station:TCOON:003:1,2015-10-01T01:06:00Z,26.8015,-97.4706,0.0,4.8,92.0,6.2,'11111222,11111222,11111222' 
TCOON,ioos:station:TCOON:003:1,2015-10-01T01:12:00Z,26.8015,-97.4706,0.0,4.8,92.0,6.2,'1111122,1111122,1111122' 
TCOON,ioos:station:TCOON:003:1,2015-10-01T01:18:00Z,26.8015,-97.4706,0.0,4.7,91.0,6.1,'11111222,11111222,11111222' 
TCOON,ioos:station:TCOON:003:1,2015-10-01T01:24:00Z,26.8015,-97.4706,0.0,5.0,86.0,6.3,'11111222,11111222,11111222' 
TCOON,ioos:station:TCOON:003:1,2015-10-01T01:30:00Z,26.8015,-97.4706,0.0,4.7,89.0,6.4,'11111222,11111222,11111222' 
TCOON,ioos:station:TCOON:003:1,2015-10-01T01:36:00Z,26.8015,-97.4706,0.0,4.3,92.0,5.9,'11111222,11111222,11111222' 
TCOON,ioos:station:TCOON:003:1,2015-10-01T01:42:00Z,26.8015,-97.4706,0.0,4.2,93.0,5.0,'11111222,11111222,11111222' 
TCOON,ioos:station:TCOON:003:1,2015-10-01T01:48:00Z,26.8015,-97.4706,0.0,4.3,91.0,5.1,'11111222,11111222,11111222' 
TCOON,ioos:station:TCOON:003:1,2015-10-01T01:54:00Z,26.8015,-97.4706,0.0,4.6,90.0,5.2,'11111222,11111222,11111222' 
TCOON,ioos:station:TCOON:003:1,2015-10-01T02:00:00Z,26.8015,-97.4706,0.0,4.9,85.0,5.9,'11111222,11111222,11111222' 
TCOON,ioos:station:TCOON:003:1,2015-10-01T02:06:00Z,26.8015,-97.4706,0.0,4.5,89.0,5.4,'11111222,11111222,11111222' 
TCOON,ioos:station:TCOON:003:1,2015-10-01T02:12:00Z,26.8015,-97.4706,0.0,4.5,89.0,5.4,'1111122,1111122,1111122' 
TCOON,ioos:station:TCOON:003:1,2015-10-01T02:18:00Z,26.8015,-97.4706,0.0,4.5,85.0,5.4,'11111222,11111222,11111222' 
TCOON,ioos:station:TCOON:003:1,2015-10-01T02:24:00Z,26.8015,-97.4706,0.0,4.4,88.0,5.4,'11111222,11111222,11111222' 
TCOON,ioos:station:TCOON:003:1,2015-10-01T02:30:00Z,26.8015,-97.4706,0.0,4.2,90.0,5.3,'11111222,11111222,11111222' 
TCOON,ioos:station:TCOON:003:1,2015-10-01T02:36:00Z,26.8015,-97.4706,0.0,3.5,97.0,4.3,'11111222,11111222,11111222' 
TCOON,ioos:station:TCOON:003:1,2015-10-01T02:42:00Z,26.8015,-97.4706,0.0,3.5,93.0,4.5,'11111222,11111222,11111222' 
TCOON,ioos:station:TCOON:003:1,2015-10-01T02:48:00Z,26.8015,-97.4706,0.0,4.0,91.0,4.8,'11111222,11111222,11111222' 
TCOON,ioos:station:TCOON:003:1,2015-10-01T02:54:00Z,26.8015,-97.4706,0.0,3.3,88.0,4.4,'11111222,11111222,11111222' 
TCOON,ioos:station:TCOON:003:1,2015-10-01T03:00:00Z,26.8015,-97.4706,0.0,3.4,86.0,4.2,'11111222,11111222,11111222' 
TCOON,ioos:station:TCOON:003:1,2015-10-01T03:06:00Z,26.8015,-97.4706,0.0,4.2,87.0,4.8,'11111222,11111222,11111222' 
TCOON,ioos:station:TCOON:003:1,2015-10-01T03:12:00Z,26.8015,-97.4706,0.0,3.8,88.0,5.0,'11111222,11111222,11111222' 
TCOON,ioos:station:TCOON:003:1,2015-10-01T03:18:00Z,26.8015,-97.4706,0.0,3.7,94.0,4.6,'11111222,11111222,11111222' 
TCOON,ioos:station:TCOON:003:1,2015-10-01T03:24:00Z,26.8015,-97.4706,0.0,3.7,94.0,4.6,'1111122,1111122,1111122' 
TCOON,ioos:station:TCOON:003:1,2015-10-01T03:30:00Z,26.8015,-97.4706,0.0,3.6,91.0,4.7,'11111222,11111222,11111222' 
TCOON,ioos:station:TCOON:003:1,2015-10-01T03:36:00Z,26.8015,-97.4706,0.0,4.0,91.0,4.9,'11111222,11111222,11111222' 
TCOON,ioos:station:TCOON:003:1,2015-10-01T03:42:00Z,26.8015,-97.4706,0.0,3.9,91.0,4.7,'11111222,11111222,11111222' 
TCOON,ioos:station:TCOON:003:1,2015-10-01T03:48:00Z,26.8015,-97.4706,0.0,3.3,94.0,4.3,'11111222,11111222,11111222' 
TCOON,ioos:station:TCOON:003:1,2015-10-01T03:54:00Z,26.8015,-97.4706,0.0,3.3,94.0,3.9,'11111222,11111222,11111222' 
TCOON,ioos:station:TCOON:003:1,2015-10-01T04:00:00Z,26.8015,-97.4706,0.0,3.1,94.0,3.6,'11111222,11111222,11111222' 
TCOON,ioos:station:TCOON:003:1,2015-10-01T04:06:00Z,26.8015,-97.4706,0.0,3.0,92.0,3.8,'11111222,11111222,11111222' 
TCOON,ioos:station:TCOON:003:1,2015-10-01T04:12:00Z,26.8015,-97.4706,0.0,3.0,92.0,3.8,'1111122,1111122,1111122' 
TCOON,ioos:station:TCOON:003:1,2015-10-01T04:18:00Z,26.8015,-97.4706,0.0,2.8,89.0,3.3,'11111222,11111222,11111222' 
TCOON,ioos:station:TCOON:003:1,2015-10-01T04:24:00Z,26.8015,-97.4706,0.0,2.6,90.0,3.2,'11111222,11111222,11111222' 
TCOON,ioos:station:TCOON:003:1,2015-10-01T04:30:00Z,26.8015,-97.4706,0.0,2.7,90.0,3.3,'11111222,11111222,11111222' 
TCOON,ioos:station:TCOON:003:1,2015-10-01T04:36:00Z,26.8015,-97.4706,0.0,2.6,89.0,3.2,'11111222,11111222,11111222' 
TCOON,ioos:station:TCOON:003:1,2015-10-01T04:42:00Z,26.8015,-97.4706,0.0,2.7,87.0,3.1,'11111222,11111222,11111222' 
TCOON,ioos:station:TCOON:003:1,2015-10-01T04:48:00Z,26.8015,-97.4706,0.0,2.9,86.0,3.4,'11111222,11111222,11111222' 
TCOON,ioos:station:TCOON:003:1,2015-10-01T04:54:00Z,26.8015,-97.4706,0.0,2.7,85.0,3.2,'11111222,11111222,11111222' 
TCOON,ioos:station:TCOON:003:1,2015-10-01T05:00:00Z,26.8015,-97.4706,0.0,2.5,89.0,2.9,'11111222,11111222,11111222' 
TCOON,ioos:station:TCOON:003:1,2015-10-01T05:06:00Z,26.8015,-97.4706,0.0,2.3,85.0,2.6,'11111222,11111222,11111222' 
TCOON,ioos:station:TCOON:003:1,2015-10-01T05:12:00Z,26.8015,-97.4706,0.0,2.2,84.0,2.5,'11111222,11111222,11111222' 
TCOON,ioos:station:TCOON:003:1,2015-10-01T05:18:00Z,26.8015,-97.4706,0.0,2.2,91.0,2.5,'11111222,11111222,11111222' 
TCOON,ioos:station:TCOON:003:1,2015-10-01T05:24:00Z,26.8015,-97.4706,0.0,2.1,93.0,2.4,'11111222,11111222,11111222' 
TCOON,ioos:station:TCOON:003:1,2015-10-01T05:30:00Z,26.8015,-97.4706,0.0,2.1,93.0,2.4,'1111122,1111122,1111122' 
TCOON,ioos:station:TCOON:003:1,2015-10-01T05:36:00Z,26.8015,-97.4706,0.0,2.2,100.0,2.9,'11111222,11111222,11111222' 
TCOON,ioos:station:TCOON:003:1,2015-10-01T05:42:00Z,26.8015,-97.4706,0.0,2.0,106.0,2.4,'11111222,11111222,11111222' 
TCOON,ioos:station:TCOON:003:1,2015-10-01T05:48:00Z,26.8015,-97.4706,0.0,1.8,97.0,2.2,'11111222,11111222,11111222' 
TCOON,ioos:station:TCOON:003:1,2015-10-01T05:54:00Z,26.8015,-97.4706,0.0,2.0,101.0,2.3,'11111222,11111222,11111222' 
TCOON,ioos:station:TCOON:003:1,2015-10-01T06:00:00Z,26.8015,-97.4706,0.0,1.5,100.0,2.1,'11111222,11111222,11111222' 
TCOON,ioos:station:TCOON:003:1,2015-10-01T06:06:00Z,26.8015,-97.4706,0.0,1.8,90.0,2.0,'11111222,11111222,11111222' 
TCOON,ioos:station:TCOON:003:1,2015-10-01T06:12:00Z,26.8015,-97.4706,0.0,1.8,88.0,2.0,'11111222,11111222,11111222' 
TCOON,ioos:station:TCOON:003:1,2015-10-01T06:18:00Z,26.8015,-97.4706,0.0,1.6,87.0,1.9,'11111222,11111222,11111222' 
TCOON,ioos:station:TCOON:003:1,2015-10-01T06:24:00Z,26.8015,-97.4706,0.0,1.6,87.0,1.9,'1111122,1111122,1111122' 
TCOON,ioos:station:TCOON:003:1,2015-10-01T06:30:00Z,26.8015,-97.4706,0.0,1.7,86.0,1.8,'11111222,11111222,11111222' 
TCOON,ioos:station:TCOON:003:1,2015-10-01T06:36:00Z,26.8015,-97.4706,0.0,1.3,79.0,1.8,'11111222,11111222,11111222' 
TCOON,ioos:station:TCOON:003:1,2015-10-01T06:42:00Z,26.8015,-97.4706,0.0,1.4,72.0,1.6,'11111222,11111222,11111222' 
TCOON,ioos:station:TCOON:003:1,2015-10-01T06:48:00Z,26.8015,-97.4706,0.0,1.4,74.0,1.6,'11111222,11111222,11111222' 
TCOON,ioos:station:TCOON:003:1,2015-10-01T06:54:00Z,26.8015,-97.4706,0.0,1.2,77.0,1.6,'11111222,11111222,11111222' 
TCOON,ioos:station:TCOON:003:1,2015-10-01T07:00:00Z,26.8015,-97.4706,0.0,1.1,79.0,1.2,'11111222,11111222,11111222' 
TCOON,ioos:station:TCOON:003:1,2015-10-01T07:06:00Z,26.8015,-97.4706,0.0,1.0,74.0,1.1,'11111222,11111222,11111222' 
TCOON,ioos:station:TCOON:003:1,2015-10-01T07:12:00Z,26.8015,-97.4706,0.0,0.9,71.0,1.1,'11111222,11111222,11111222' 
TCOON,ioos:station:TCOON:003:1,2015-10-01T07:18:00Z,26.8015,-97.4706,0.0,1.0,80.0,1.0,'11111222,11111222,11111222' 
TCOON,ioos:station:TCOON:003:1,2015-10-01T07:24:00Z,26.8015,-97.4706,0.0,0.9,82.0,1.0,'11111222,11111222,11111222' 
TCOON,ioos:station:TCOON:003:1,2015-10-01T07:30:00Z,26.8015,-97.4706,0.0,0.8,87.0,1.0,'11111222,11111222,11111222' 
TCOON,ioos:station:TCOON:003:1,2015-10-01T07:36:00Z,26.8015,-97.4706,0.0,0.7,68.0,0.9,'11111222,11111222,11111222' 
TCOON,ioos:station:TCOON:003:1,2015-10-01T07:42:00Z,26.8015,-97.4706,0.0,0.4,47.0,0.8,'11111222,11111222,11111222' 
TCOON,ioos:station:TCOON:003:1,2015-10-01T07:48:00Z,26.8015,-97.4706,0.0,0.0,81.0,0.4,'11111222,11111222,11111222' 
TCOON,ioos:station:TCOON:003:1,2015-10-01T07:54:00Z,26.8015,-97.4706,0.0,0.0,81.0,0.0,'11111222,11111222,11111222' 
TCOON,ioos:station:TCOON:003:1,2015-10-01T08:00:00Z,26.8015,-97.4706,0.0,0.4,339.0,1.1,'11111222,11111222,11111222' 
TCOON,ioos:station:TCOON:003:1,2015-10-01T08:06:00Z,26.8015,-97.4706,0.0,2.2,296.0,2.6,'11111222,11111222,11111222' 
TCOON,ioos:station:TCOON:003:1,2015-10-01T08:12:00Z,26.8015,-97.4706,0.0,2.6,296.0,3.0,'11111222,11111222,11111222' 
TCOON,ioos:station:TCOON:003:1,2015-10-01T08:18:00Z,26.8015,-97.4706,0.0,2.6,298.0,3.0,'11111222,11111222,11111222' 
TCOON,ioos:station:TCOON:003:1,2015-10-01T08:24:00Z,26.8015,-97.4706,0.0,2.6,298.0,3.0,'1111122,1111122,1111122' 
TCOON,ioos:station:TCOON:003:1,2015-10-01T08:30:00Z,26.8015,-97.4706,0.0,3.1,299.0,3.5,'11111222,11111222,11111222' 
TCOON,ioos:station:TCOON:003:1,2015-10-01T08:36:00Z,26.8015,-97.4706,0.0,3.2,303.0,3.5,'11111222,11111222,11111222' 
TCOON,ioos:station:TCOON:003:1,2015-10-01T08:42:00Z,26.8015,-97.4706,0.0,3.4,296.0,3.8,'11111222,11111222,11111222' 
TCOON,ioos:station:TCOON:003:1,2015-10-01T08:48:00Z,26.8015,-97.4706,0.0,3.7,306.0,4.0,'11111222,11111222,11111222' 
TCOON,ioos:station:TCOON:003:1,2015-10-01T08:54:00Z,26.8015,-97.4706,0.0,3.4,309.0,4.1,'11111222,11111222,11111222' 
TCOON,ioos:station:TCOON:003:1,2015-10-01T09:00:00Z,26.8015,-97.4706,0.0,3.3,310.0,3.9,'11111222,11111222,11111222' 
TCOON,ioos:station:TCOON:003:1,2015-10-01T09:06:00Z,26.8015,-97.4706,0.0,3.3,308.0,3.6,'11111222,11111222,11111222' 
TCOON,ioos:station:TCOON:003:1,2015-10-01T09:12:00Z,26.8015,-97.4706,0.0,3.7,309.0,3.9,'11111222,11111222,11111222' 
TCOON,ioos:station:TCOON:003:1,2015-10-01T09:18:00Z,26.8015,-97.4706,0.0,3.6,312.0,4.1,'11111222,11111222,11111222' 
TCOON,ioos:station:TCOON:003:1,2015-10-01T09:24:00Z,26.8015,-97.4706,0.0,3.6,312.0,4.1,'1111122,1111122,1111122' 
TCOON,ioos:station:TCOON:003:1,2015-10-01T09:30:00Z,26.8015,-97.4706,0.0,3.7,309.0,4.0,'11111222,11111222,11111222' 
TCOON,ioos:station:TCOON:003:1,2015-10-01T09:36:00Z,26.8015,-97.4706,0.0,3.5,309.0,4.1,'11111222,11111222,11111222' 
TCOON,ioos:station:TCOON:003:1,2015-10-01T09:42:00Z,26.8015,-97.4706,0.0,3.4,305.0,3.6,'11111222,11111222,11111222' 
TCOON,ioos:station:TCOON:003:1,2015-10-01T09:48:00Z,26.8015,-97.4706,0.0,3.5,305.0,4.2,'11111222,11111222,11111222' 
TCOON,ioos:station:TCOON:003:1,2015-10-01T09:54:00Z,26.8015,-97.4706,0.0,3.8,309.0,4.2,'11111222,11111222,11111222' 
TCOON,ioos:station:TCOON:003:1,2015-10-01T10:00:00Z,26.8015,-97.4706,0.0,3.8,308.0,4.3,'11111222,11111222,11111222' 
TCOON,ioos:station:TCOON:003:1,2015-10-01T10:06:00Z,26.8015,-97.4706,0.0,4.2,310.0,4.6,'11111222,11111222,11111222' 
TCOON,ioos:station:TCOON:003:1,2015-10-01T10:12:00Z,26.8015,-97.4706,0.0,4.2,310.0,4.6,'11111222,11111222,11111222' 
TCOON,ioos:station:TCOON:003:1,2015-10-01T10:18:00Z,26.8015,-97.4706,0.0,4.0,311.0,4.6,'11111222,11111222,11111222' 
TCOON,ioos:station:TCOON:003:1,2015-10-01T10:24:00Z,26.8015,-97.4706,0.0,4.0,311.0,4.6,'1111122,1111122,1111122' 
TCOON,ioos:station:TCOON:003:1,2015-10-01T10:30:00Z,26.8015,-97.4706,0.0,3.9,312.0,4.2,'11111222,11111222,11111222' 
TCOON,ioos:station:TCOON:003:1,2015-10-01T10:36:00Z,26.8015,-97.4706,0.0,3.7,311.0,4.2,'11111222,11111222,11111222' 
TCOON,ioos:station:TCOON:003:1,2015-10-01T10:42:00Z,26.8015,-97.4706,0.0,3.8,311.0,4.2,'11111222,11111222,11111222' 
TCOON,ioos:station:TCOON:003:1,2015-10-01T10:48:00Z,26.8015,-97.4706,0.0,4.0,311.0,4.5,'11111222,11111222,11111222' 
TCOON,ioos:station:TCOON:003:1,2015-10-01T10:54:00Z,26.8015,-97.4706,0.0,4.0,308.0,4.3,'11111222,11111222,11111222' 
TCOON,ioos:station:TCOON:003:1,2015-10-01T11:00:00Z,26.8015,-97.4706,0.0,4.0,309.0,4.4,'11111222,11111222,11111222' 
TCOON,ioos:station:TCOON:003:1,2015-10-01T11:06:00Z,26.8015,-97.4706,0.0,3.8,310.0,4.4,'11111222,11111222,11111222' 
TCOON,ioos:station:TCOON:003:1,2015-10-01T11:12:00Z,26.8015,-97.4706,0.0,3.8,310.0,4.4,'1111122,1111122,1111122' 
TCOON,ioos:station:TCOON:003:1,2015-10-01T11:18:00Z,26.8015,-97.4706,0.0,4.1,311.0,4.4,'11111222,11111222,11111222' 
TCOON,ioos:station:TCOON:003:1,2015-10-01T11:24:00Z,26.8015,-97.4706,0.0,4.1,313.0,4.6,'11111222,11111222,11111222' 
TCOON,ioos:station:TCOON:003:1,2015-10-01T11:30:00Z,26.8015,-97.4706,0.0,4.3,314.0,4.7,'11111222,11111222,11111222' 
TCOON,ioos:station:TCOON:003:1,2015-10-01T11:36:00Z,26.8015,-97.4706,0.0,4.2,321.0,4.4,'11111222,11111222,11111222' 
TCOON,ioos:station:TCOON:003:1,2015-10-01T11:42:00Z,26.8015,-97.4706,0.0,4.2,320.0,4.6,'11111222,11111222,11111222' 
TCOON,ioos:station:TCOON:003:1,2015-10-01T11:48:00Z,26.8015,-97.4706,0.0,4.2,320.0,4.6,'11111222,11111222,11111222' 
TCOON,ioos:station:TCOON:003:1,2015-10-01T11:54:00Z,26.8015,-97.4706,0.0,3.7,312.0,4.2,'11111222,11111222,11111222' 
TCOON,ioos:station:TCOON:003:1,2015-10-01T12:00:00Z,26.8015,-97.4706,0.0,3.4,312.0,4.1,'11111222,11111222,11111222' 
TCOON,ioos:station:TCOON:003:1,2015-10-01T12:06:00Z,26.8015,-97.4706,0.0,3.5,312.0,4.0,'11111222,11111222,11111222' 
TCOON,ioos:station:TCOON:003:1,2015-10-01T12:12:00Z,26.8015,-97.4706,0.0,3.8,312.0,4.4,'11111222,11111222,11111222' 
TCOON,ioos:station:TCOON:003:1,2015-10-01T12:18:00Z,26.8015,-97.4706,0.0,3.8,312.0,4.4,'1111122,1111122,1111122' 
TCOON,ioos:station:TCOON:003:1,2015-10-01T12:24:00Z,26.8015,-97.4706,0.0,4.0,311.0,4.3,'11111222,11111222,11111222' 
TCOON,ioos:station:TCOON:003:1,2015-10-01T12:30:00Z,26.8015,-97.4706,0.0,3.8,309.0,4.5,'11111222,11111222,11111222' 
TCOON,ioos:station:TCOON:003:1,2015-10-01T12:36:00Z,26.8015,-97.4706,0.0,4.0,307.0,4.4,'11111222,11111222,11111222' 
TCOON,ioos:station:TCOON:003:1,2015-10-01T12:42:00Z,26.8015,-97.4706,0.0,4.0,307.0,4.5,'11111222,11111222,11111222' 
TCOON,ioos:station:TCOON:003:1,2015-10-01T12:48:00Z,26.8015,-97.4706,0.0,4.2,305.0,4.8,'11111222,11111222,11111222' 
TCOON,ioos:station:TCOON:003:1,2015-10-01T12:54:00Z,26.8015,-97.4706,0.0,4.4,305.0,4.8,'11111222,11111222,11111222' 
TCOON,ioos:station:TCOON:003:1,2015-10-01T13:00:00Z,26.8015,-97.4706,0.0,3.9,302.0,4.9,'11111222,11111222,11111222' 
TCOON,ioos:station:TCOON:003:1,2015-10-01T13:06:00Z,26.8015,-97.4706,0.0,4.5,306.0,5.0,'11111222,11111222,11111222' 
TCOON,ioos:station:TCOON:003:1,2015-10-01T13:12:00Z,26.8015,-97.4706,0.0,4.1,308.0,4.9,'11111222,11111222,11111222' 
TCOON,ioos:station:TCOON:003:1,2015-10-01T13:18:00Z,26.8015,-97.4706,0.0,4.1,308.0,4.9,'1111122,1111122,1111122' 
TCOON,ioos:station:TCOON:003:1,2015-10-01T13:24:00Z,26.8015,-97.4706,0.0,4.4,308.0,4.8,'11111222,11111222,11111222' 
TCOON,ioos:station:TCOON:003:1,2015-10-01T13:30:00Z,26.8015,-97.4706,0.0,4.2,310.0,5.1,'11111222,11111222,11111222' 
TCOON,ioos:station:TCOON:003:1,2015-10-01T13:36:00Z,26.8015,-97.4706,0.0,4.1,312.0,4.9,'11111222,11111222,11111222' 
TCOON,ioos:station:TCOON:003:1,2015-10-01T13:42:00Z,26.8015,-97.4706,0.0,4.6,310.0,5.2,'11111222,11111222,11111222' 
TCOON,ioos:station:TCOON:003:1,2015-10-01T13:48:00Z,26.8015,-97.4706,0.0,4.4,303.0,5.0,'11111222,11111222,11111222' 
TCOON,ioos:station:TCOON:003:1,2015-10-01T13:54:00Z,26.8015,-97.4706,0.0,4.1,306.0,4.9,'11111222,11111222,11111222' 
TCOON,ioos:station:TCOON:003:1,2015-10-01T14:00:00Z,26.8015,-97.4706,0.0,4.1,309.0,4.5,'11111222,11111222,11111222' 
TCOON,ioos:station:TCOON:003:1,2015-10-01T14:06:00Z,26.8015,-97.4706,0.0,4.1,304.0,4.7,'11111222,11111222,11111222' 
TCOON,ioos:station:TCOON:003:1,2015-10-01T14:12:00Z,26.8015,-97.4706,0.0,3.6,290.0,4.5,'11111222,11111222,11111222' 
TCOON,ioos:station:TCOON:003:1,2015-10-01T14:18:00Z,26.8015,-97.4706,0.0,3.7,299.0,4.1,'11111222,11111222,11111222' 
TCOON,ioos:station:TCOON:003:1,2015-10-01T14:24:00Z,26.8015,-97.4706,0.0,3.9,296.0,4.2,'11111222,11111222,11111222' 
TCOON,ioos:station:TCOON:003:1,2015-10-01T14:30:00Z,26.8015,-97.4706,0.0,3.8,302.0,4.4,'11111222,11111222,11111222' 
TCOON,ioos:station:TCOON:003:1,2015-10-01T14:36:00Z,26.8015,-97.4706,0.0,3.9,292.0,4.3,'11111222,11111222,11111222' 
TCOON,ioos:station:TCOON:003:1,2015-10-01T14:42:00Z,26.8015,-97.4706,0.0,3.9,292.0,4.3,'1111122,1111122,1111122' 
TCOON,ioos:station:TCOON:003:1,2015-10-01T14:48:00Z,26.8015,-97.4706,0.0,3.7,297.0,4.2,'11111222,11111222,11111222' 
TCOON,ioos:station:TCOON:003:1,2015-10-01T14:54:00Z,26.8015,-97.4706,0.0,3.9,300.0,4.9,'11111222,11111222,11111222' 
TCOON,ioos:station:TCOON:003:1,2015-10-01T15:00:00Z,26.8015,-97.4706,0.0,4.3,304.0,4.9,'11111222,11111222,11111222' 
TCOON,ioos:station:TCOON:003:1,2015-10-01T15:06:00Z,26.8015,-97.4706,0.0,4.2,300.0,4.7,'11111222,11111222,11111222' 
TCOON,ioos:station:TCOON:003:1,2015-10-01T15:12:00Z,26.8015,-97.4706,0.0,4.1,309.0,4.6,'11111222,11111222,11111222' 
TCOON,ioos:station:TCOON:003:1,2015-10-01T15:18:00Z,26.8015,-97.4706,0.0,3.7,308.0,4.3,'11111222,11111222,11111222' 
TCOON,ioos:station:TCOON:003:1,2015-10-01T15:24:00Z,26.8015,-97.4706,0.0,3.7,308.0,4.3,'1111122,1111122,1111122' 
TCOON,ioos:station:TCOON:003:1,2015-10-01T15:30:00Z,26.8015,-97.4706,0.0,3.7,307.0,4.5,'11111222,11111222,11111222' 
TCOON,ioos:station:TCOON:003:1,2015-10-01T15:36:00Z,26.8015,-97.4706,0.0,3.4,310.0,4.2,'11111222,11111222,11111222' 
TCOON,ioos:station:TCOON:003:1,2015-10-01T15:42:00Z,26.8015,-97.4706,0.0,3.6,307.0,4.1,'11111222,11111222,11111222' 
TCOON,ioos:station:TCOON:003:1,2015-10-01T15:48:00Z,26.8015,-97.4706,0.0,2.9,314.0,4.1,'11111222,11111222,11111222' 
TCOON,ioos:station:TCOON:003:1,2015-10-01T15:54:00Z,26.8015,-97.4706,0.0,3.1,318.0,3.6,'11111222,11111222,11111222' 
TCOON,ioos:station:TCOON:003:1,2015-10-01T16:00:00Z,26.8015,-97.4706,0.0,2.6,318.0,3.2,'11111222,11111222,11111222' 
TCOON,ioos:station:TCOON:003:1,2015-10-01T16:06:00Z,26.8015,-97.4706,0.0,2.8,303.0,4.0,'11111222,11111222,11111222' 
TCOON,ioos:station:TCOON:003:1,2015-10-01T16:12:00Z,26.8015,-97.4706,0.0,2.6,316.0,3.2,'11111222,11111222,11111222' 
TCOON,ioos:station:TCOON:003:1,2015-10-01T16:18:00Z,26.8015,-97.4706,0.0,2.6,316.0,3.2,'1111122,1111122,1111122' 
TCOON,ioos:station:TCOON:003:1,2015-10-01T16:24:00Z,26.8015,-97.4706,0.0,2.0,296.0,3.2,'11111222,11111222,11111222' 
TCOON,ioos:station:TCOON:003:1,2015-10-01T16:30:00Z,26.8015,-97.4706,0.0,1.2,298.0,2.4,'11111222,11111222,11111222' 
TCOON,ioos:station:TCOON:003:1,2015-10-01T16:36:00Z,26.8015,-97.4706,0.0,1.4,311.0,2.3,'11111222,11111222,11111222' 
TCOON,ioos:station:TCOON:003:1,2015-10-01T16:42:00Z,26.8015,-97.4706,0.0,1.4,293.0,2.3,'11111222,11111222,11111222' 
TCOON,ioos:station:TCOON:003:1,2015-10-01T16:48:00Z,26.8015,-97.4706,0.0,1.6,305.0,2.3,'11111222,11111222,11111222' 
TCOON,ioos:station:TCOON:003:1,2015-10-01T16:54:00Z,26.8015,-97.4706,0.0,1.3,304.0,2.2,'11111222,11111222,11111222' 
TCOON,ioos:station:TCOON:003:1,2015-10-01T17:00:00Z,26.8015,-97.4706,0.0,1.3,326.0,2.4,'11111222,11111222,11111222' 
TCOON,ioos:station:TCOON:003:1,2015-10-01T17:06:00Z,26.8015,-97.4706,0.0,1.6,276.0,2.1,'11111222,11111222,11111222' 
TCOON,ioos:station:TCOON:003:1,2015-10-01T17:12:00Z,26.8015,-97.4706,0.0,1.9,301.0,2.1,'11111222,11111222,11111222' 
TCOON,ioos:station:TCOON:003:1,2015-10-01T17:18:00Z,26.8015,-97.4706,0.0,1.9,301.0,2.1,'1111122,1111122,1111122' 
TCOON,ioos:station:TCOON:003:1,2015-10-01T17:24:00Z,26.8015,-97.4706,0.0,0.4,332.0,1.9,'11111222,11111222,11111222' 
TCOON,ioos:station:TCOON:003:1,2015-10-01T17:30:00Z,26.8015,-97.4706,0.0,0.4,25.0,2.3,'11111222,11111222,11111222' 
TCOON,ioos:station:TCOON:003:1,2015-10-01T17:36:00Z,26.8015,-97.4706,0.0,2.4,58.0,3.4,'11111222,11111222,11111222' 
TCOON,ioos:station:TCOON:003:1,2015-10-01T17:42:00Z,26.8015,-97.4706,0.0,1.5,315.0,3.0,'11111222,11111222,11111222' 
TCOON,ioos:station:TCOON:003:1,2015-10-01T17:48:00Z,26.8015,-97.4706,0.0,0.5,46.0,1.9,'11111222,11111222,11111222' 
TCOON,ioos:station:TCOON:003:1,2015-10-01T17:54:00Z,26.8015,-97.4706,0.0,2.3,71.0,4.5,'11111222,11111222,11111222' 
TCOON,ioos:station:TCOON:003:1,2015-10-01T18:00:00Z,26.8015,-97.4706,0.0,4.6,33.0,5.2,'11111222,11111222,11111222' 
TCOON,ioos:station:TCOON:003:1,2015-10-01T18:06:00Z,26.8015,-97.4706,0.0,2.6,41.0,5.6,'11111222,11111222,11111222' 
TCOON,ioos:station:TCOON:003:1,2015-10-01T18:12:00Z,26.8015,-97.4706,0.0,3.0,56.0,3.9,'11111222,11111222,11111222' 
TCOON,ioos:station:TCOON:003:1,2015-10-01T18:18:00Z,26.8015,-97.4706,0.0,4.3,76.0,4.9,'11111222,11111222,11111222' 
TCOON,ioos:station:TCOON:003:1,2015-10-01T18:24:00Z,26.8015,-97.4706,0.0,4.3,76.0,4.9,'1111122,1111122,1111122' 
TCOON,ioos:station:TCOON:003:1,2015-10-01T18:30:00Z,26.8015,-97.4706,0.0,4.3,52.0,5.5,'11111222,11111222,11111222' 
TCOON,ioos:station:TCOON:003:1,2015-10-01T18:36:00Z,26.8015,-97.4706,0.0,2.4,56.0,5.4,'11111222,11111222,11111222' 
TCOON,ioos:station:TCOON:003:1,2015-10-01T18:42:00Z,26.8015,-97.4706,0.0,4.9,48.0,6.0,'11111222,11111222,11111222' 
TCOON,ioos:station:TCOON:003:1,2015-10-01T18:48:00Z,26.8015,-97.4706,0.0,3.9,55.0,7.0,'11111222,11111222,11111222' 
TCOON,ioos:station:TCOON:003:1,2015-10-01T18:54:00Z,26.8015,-97.4706,0.0,3.2,80.0,4.6,'11111222,11111222,11111222' 
TCOON,ioos:station:TCOON:003:1,2015-10-01T19:00:00Z,26.8015,-97.4706,0.0,3.4,45.0,5.6,'11111222,11111222,11111222' 
TCOON,ioos:station:TCOON:003:1,2015-10-01T19:06:00Z,26.8015,-97.4706,0.0,4.1,31.0,5.7,'11111222,11111222,11111222' 
TCOON,ioos:station:TCOON:003:1,2015-10-01T19:12:00Z,26.8015,-97.4706,0.0,2.4,34.0,5.4,'11111222,11111222,11111222' 
TCOON,ioos:station:TCOON:003:1,2015-10-01T19:18:00Z,26.8015,-97.4706,0.0,2.4,34.0,5.4,'1111122,1111122,1111122' 
TCOON,ioos:station:TCOON:003:1,2015-10-01T19:24:00Z,26.8015,-97.4706,0.0,2.0,6.0,3.2,'11111222,11111222,11111222' 
TCOON,ioos:station:TCOON:003:1,2015-10-01T19:30:00Z,26.8015,-97.4706,0.0,1.6,70.0,2.9,'11111222,11111222,11111222' 
TCOON,ioos:station:TCOON:003:1,2015-10-01T19:36:00Z,26.8015,-97.4706,0.0,3.5,4.0,6.2,'11111222,11111222,11111222' 
TCOON,ioos:station:TCOON:003:1,2015-10-01T19:42:00Z,26.8015,-97.4706,0.0,1.8,5.0,3.2,'11111222,11111222,11111222' 
TCOON,ioos:station:TCOON:003:1,2015-10-01T19:48:00Z,26.8015,-97.4706,0.0,2.8,350.0,3.8,'11111222,11111222,11111222' 
TCOON,ioos:station:TCOON:003:1,2015-10-01T19:54:00Z,26.8015,-97.4706,0.0,1.3,332.0,3.2,'11111222,11111222,11111222' 
TCOON,ioos:station:TCOON:003:1,2015-10-01T20:00:00Z,26.8015,-97.4706,0.0,4.3,39.0,5.0,'11111222,11111222,11111222' 
TCOON,ioos:station:TCOON:003:1,2015-10-01T20:06:00Z,26.8015,-97.4706,0.0,1.8,1.0,5.5,'11111222,11111222,11111222' 
TCOON,ioos:station:TCOON:003:1,2015-10-01T20:12:00Z,26.8015,-97.4706,0.0,0.9,359.0,1.9,'11111222,11111222,11111222' 
TCOON,ioos:station:TCOON:003:1,2015-10-01T20:18:00Z,26.8015,-97.4706,0.0,3.4,77.0,4.7,'11111222,11111222,11111222' 
TCOON,ioos:station:TCOON:003:1,2015-10-01T20:24:00Z,26.8015,-97.4706,0.0,3.4,77.0,4.7,'1111122,1111122,1111122' 